QPF
0.00 0.00 0.00 0.00 0.00 0.00 0.00 0.00 0.00 0.00 0.00 0.00 0.00 0.00 0.00 0.00 0.01 0.01 0.01 0.01 0.01 0.01 0.01 0.01 0.01 0.02 0.03 0.05 0.07 0.08 0.09 0.10 0.12 0.11 0.09 0.09 0.08 0.09 0.10 0.11 0.13 0.12 0.12
0.00 0.00 0.00 0.00 0.00 0.00 0.00 0.00 0.00 0.00 0.00 0.00 0.00 0.00 0.00 0.00 0.00 0.01 0.00 0.01 0.02 0.02 0.01 0.01 0.01 0.01 0.02 0.04 0.06 0.08 0.08 0.10 0.14 0.13 0.12 0.10 0.10 0.07 0.08 0.11 0.11 0.12 0.14
0.00 0.00 0.00 0.00 0.00 0.00 0.00 0.00 0.00 0.00 0.00 0.00 0.00 0.00 0.00 0.00 0.01 0.01 0.01 0.01 0.02 0.02 0.01 0.01 0.02 0.02 0.02 0.03 0.04 0.07 0.09 0.10 0.13 0.15 0.15 0.12 0.11 0.10 0.09 0.10 0.12 0.13 0.15
0.00 0.00 0.00 0.00 0.00 0.00 0.00 0.00 0.00 0.00 0.00 0.00 0.00 0.00 0.00 0.00 0.01 0.01 0.01 0.01 0.01 0.01 0.02 0.02 0.02 0.02 0.02 0.02 0.03 0.05 0.07 0.08 0.10 0.12 0.11 0.11 0.12 0.11 0.08 0.08 0.11 0.14 0.14
0.00 0.00 0.00 0.00 0.00 0.00 0.00 0.00 0.00 0.00 0.00 0.00 0.00 0.00 0.00 0.01 0.01 0.02 0.02 0.01 0.01 0.01 0.02 0.02 0.02 0.02 0.03 0.03 0.03 0.03 0.04 0.06 0.07 0.08 0.10 0.11 0.10 0.09 0.09 0.07 0.08 0.11 0.12
0.00 0.00 0.00 0.00 0.00 0.00 0.00 0.00 0.00 0.00 0.00 0.00 0.00 0.01 0.01 0.02 0.02 0.02 0.01 0.01 0.01 0.02 0.02 0.02 0.01 0.01 0.02 0.02 0.02 0.01 0.02 0.04 0.06 0.07 0.09 0.10 0.09 0.08 0.07 0.06 0.05 0.07 0.11
0.00 0.00 0.00 0.00 0.00 0.00 0.00 0.00 0.00 0.00 0.00 0.00 0.00 0.00 0.01 0.02 0.02 0.02 0.02 0.02 0.02 0.02 0.02 0.01 0.01 0.01 0.01 0.01 0.02 0.02 0.02 0.04 0.05 0.06 0.08 0.09 0.08 0.08 0.08 0.06 0.05 0.04 0.06
0.00 0.00 0.00 0.00 0.00 0.00 0.00 0.00 0.00 0.00 0.00 0.00 0.00 0.00 0.00 0.01 0.02 0.03 0.03 0.04 0.04 0.04 0.03 0.03 0.02 0.01 0.02 0.01 0.02 0.02 0.02 0.03 0.05 0.06 0.06 0.07 0.09 0.09 0.08 0.06 0.06 0.04 0.05
0.00 0.00 0.00 0.00 0.00 0.00 0.00 0.00 0.00 0.00 0.00 0.00 0.00 0.00 0.00 0.01 0.02 0.02 0.03 0.03 0.04 0.05 0.05 0.05 0.03 0.02 0.02 0.02 0.02 0.02 0.03 0.03 0.04 0.04 0.05 0.06 0.08 0.09 0.07 0.06 0.06 0.05 0.04
0.00 0.00 0.00 0.00 0.00 0.00 0.00 0.00 0.00 0.00 0.00 0.00 0.00 0.00 0.00 0.00 0.01 0.02 0.02 0.03 0.04 0.04 0.04 0.03 0.02 0.02 0.02 0.02 0.02 0.02 0.03 0.04 0.04 0.05 0.07 0.07 0.06 0.06 0.05 0.05 0.05 0.05 0.04
0.00 0.00 0.00 0.00 0.00 0.00 0.00 0.00 0.00 0.00 0.00 0.00 0.00 0.00 0.00 0.01 0.01 0.01 0.01 0.01 0.01 0.02 0.02 0.02 0.02 0.02 0.02 0.02 0.02 0.03 0.04 0.04 0.04 0.04 0.05 0.05 0.05 0.05 0.05 0.05 0.06 0.06 0.04
0.00 0.00 0.00 0.00 0.00 0.00 0.00 0.00 0.00 0.00 0.00 0.00 0.00 0.00 0.00 0.00 0.01 0.00 0.00 0.00 0.00 0.00 0.01 0.02 0.02 0.03 0.03 0.02 0.03 0.04 0.04 0.04 0.04 0.05 0.05 0.05 0.05 0.04 0.03 0.03 0.04 0.03 0.04
0.00 0.00 0.00 0.00 0.00 0.00 0.00 0.00 0.00 0.00 0.00 0.00 0.00 0.00 0.00 0.00 0.00 0.00 0.00 0.00 0.00 0.01 0.01 0.01 0.01 0.02 0.04 0.03 0.04 0.04 0.04 0.04 0.03 0.04 0.03 0.03 0.03 0.03 0.03 0.03 0.03 0.03 0.04
0.00 0.00 0.00 0.00 0.00 0.00 0.00 0.00 0.00 0.00 0.00 0.00 0.00 0.00 0.00 0.00 0.00 0.00 0.00 0.00 0.00 0.00 0.01 0.01 0.01 0.02 0.03 0.04 0.03 0.03 0.03 0.04 0.05 0.04 0.03 0.02 0.03 0.03 0.03 0.04 0.04 0.05 0.05
0.00 0.00 0.00 0.00 0.00 0.00 0.00 0.00 0.00 0.00 0.00 0.00 0.00 0.00 0.00 0.00 0.00 0.00 0.00 0.00 0.00 0.00 0.00 0.01 0.01 0.01 0.01 0.01 0.01 0.01 0.01 0.03 0.04 0.03 0.03 0.03 0.03 0.04 0.03 0.03 0.04 0.05 0.05
0.00 0.00 0.00 0.00 0.00 0.00 0.00 0.00 0.00 0.00 0.00 0.00 0.00 0.00 0.00 0.00 0.00 0.00 0.00 0.00 0.00 0.00 0.00 0.00 0.00 0.00 0.00 0.00 0.00 0.00 0.01 0.01 0.02 0.02 0.03 0.02 0.02 0.02 0.04 0.04 0.05 0.05 0.05
0.00 0.00 0.00 0.00 0.00 0.00 0.00 0.00 0.00 0.00 0.00 0.00 0.00 0.00 0.00 0.00 0.00 0.00 0.00 0.00 0.00 0.00 0.00 0.00 0.00 0.00 0.00 0.00 0.00 0.00 0.00 0.01 0.02 0.02 0.02 0.01 0.01 0.01 0.01 0.04 0.06 0.07 0.06
0.00 0.00 0.00 0.00 0.00 0.00 0.00 0.00 0.00 0.00 0.00 0.00 0.00 0.00 0.00 0.00 0.00 0.00 0.00 0.00 0.00 0.00 0.00 0.00 0.00 0.00 0.00 0.00 0.00 0.00 0.00 0.00 0.01 0.02 0.01 0.01 0.01 0.01 0.02 0.03 0.03 0.03 0.05
0.00 0.00 0.00 0.00 0.00 0.00 0.00 0.00 0.00 0.00 0.00 0.00 0.00 0.00 0.00 0.00 0.00 0.00 0.00 0.00 0.00 0.00 0.00 0.00 0.00 0.00 0.00 0.00 0.00 0.00 0.00 0.00 0.01 0.01 0.02 0.01 0.01 0.01 0.02 0.02 0.03 0.03 0.03
0.00 0.00 0.00 0.00 0.00 0.00 0.00 0.00 0.00 0.00 0.00 0.00 0.00 0.00 0.00 0.00 0.00 0.00 0.00 0.00 0.00 0.00 0.00 0.00 0.00 0.00 0.00 0.00 0.00 0.00 0.00 0.00 0.01 0.01 0.01 0.02 0.03 0.02 0.02 0.02 0.03 0.02 0.03
0.00 0.00 0.00 0.00 0.00 0.00 0.00 0.00 0.00 0.00 0.00 0.00 0.00 0.00 0.00 0.00 0.00 0.00 0.00 0.00 0.00 0.00 0.00 0.00 0.00 0.00 0.00 0.00 0.00 0.00 0.00 0.00 0.00 0.00 0.00 0.00 0.00 0.02 0.03 0.03 0.03 0.04 0.05
0.00 0.00 0.00 0.00 0.00 0.00 0.00 0.00 0.00 0.00 0.00 0.00 0.00 0.00 0.00 0.00 0.00 0.00 0.00 0.00 0.00 0.00 0.00 0.00 0.00 0.00 0.00 0.00 0.00 0.00 0.00 0.00 0.00 0.00 0.00 0.00 0.00 0.00 0.01 0.01 0.01 0.02 0.05
0.00 0.00 0.00 0.00 0.00 0.00 0.00 0.00 0.00 0.00 0.00 0.00 0.00 0.00 0.00 0.00 0.00 0.00 0.00 0.00 0.00 0.00 0.00 0.00 0.00 0.00 0.00 0.00 0.00 0.00 0.00 0.00 0.00 0.00 0.00 0.00 0.00 0.00 0.00 0.01 0.01 0.01 0.02
0.00 0.00 0.00 0.00 0.00 0.00 0.00 0.00 0.00 0.00 0.00 0.00 0.00 0.00 0.00 0.00 0.00 0.00 0.00 0.00 0.00 0.00 0.00 0.00 0.00 0.00 0.00 0.00 0.00 0.00 0.00 0.00 0.00 0.00 0.00 0.00 0.00 0.00 0.00 0.01 0.01 0.00 0.01
0.00 0.00 0.00 0.00 0.00 0.00 0.00 0.00 0.00 0.00 0.00 0.00 0.00 0.00 0.00 0.00 0.00 0.00 0.00 0.00 0.00 0.00 0.00 0.00 0.00 0.00 0.00 0.00 0.00 0.00 0.00 0.00 0.00 0.00 0.00 0.00 0.00 0.00 0.00 0.00 0.00 0.00 0.00
0.00 0.00 0.00 0.00 0.00 0.00 0.00 0.00 0.00 0.00 0.00 0.00 0.00 0.00 0.00 0.00 0.00 0.00 0.00 0.00 0.00 0.00 0.00 0.00 0.00 0.00 0.00 0.00 0.00 0.00 0.00 0.00 0.00 0.00 0.00 0.00 0.00 0.00 0.00 0.00 0.00 0.00 0.00
MSLP
1015.28 1015.38 1015.45 1015.48 1015.46 1015.40 1015.32 1015.23 1015.14 1015.07 1015.01 1014.95 1014.87 1014.75 1014.58 1014.36 1014.07 1013.75 1013.41 1013.08 1012.77 1012.52 1012.31 1012.16 1012.05 1011.97 1011.91 1011.86 1011.82 1011.79 1011.78 1011.79 1011.83 1011.87 1011.92 1011.96 1011.97 1011.94 1011.87 1011.77 1011.66 1011.56 1011.51
1015.44 1015.59 1015.69 1015.72 1015.66 1015.55 1015.40 1015.24 1015.12 1015.04 1015.00 1014.98 1014.97 1014.91 1014.79 1014.60 1014.32 1013.99 1013.63 1013.27 1012.95 1012.68 1012.47 1012.32 1012.22 1012.14 1012.07 1011.99 1011.91 1011.82 1011.75 1011.70 1011.69 1011.70 1011.73 1011.77 1011.79 1011.78 1011.73 1011.64 1011.54 1011.44 1011.37
1015.51 1015.71 1015.83 1015.84 1015.75 1015.58 1015.38 1015.18 1015.03 1014.95 1014.94 1014.98 1015.02 1015.04 1014.98 1014.83 1014.57 1014.24 1013.87 1013.49 1013.15 1012.86 1012.64 1012.49 1012.38 1012.29 1012.20 1012.09 1011.96 1011.83 1011.70 1011.60 1011.54 1011.53 1011.55 1011.59 1011.62 1011.64 1011.61 1011.54 1011.44 1011.34 1011.25
1015.45 1015.68 1015.81 1015.82 1015.70 1015.50 1015.25 1015.03 1014.87 1014.80 1014.83 1014.92 1015.04 1015.12 1015.12 1015.02 1014.79 1014.48 1014.10 1013.71 1013.35 1013.05 1012.82 1012.65 1012.52 1012.42 1012.30 1012.16 1011.99 1011.81 1011.64 1011.50 1011.40 1011.37 1011.38 1011.42 1011.46 1011.49 1011.48 1011.43 1011.34 1011.23 1011.13
1015.26 1015.49 1015.64 1015.65 1015.53 1015.32 1015.06 1014.82 1014.67 1014.63 1014.69 1014.84 1015.01 1015.15 1015.21 1015.15 1014.96 1014.67 1014.30 1013.91 1013.54 1013.23 1012.98 1012.79 1012.65 1012.52 1012.38 1012.21 1012.00 1011.79 1011.58 1011.40 1011.27 1011.21 1011.20 1011.23 1011.27 1011.31 1011.30 1011.26 1011.17 1011.06 1010.94
1014.95 1015.19 1015.35 1015.38 1015.28 1015.08 1014.83 1014.61 1014.47 1014.45 1014.55 1014.73 1014.95 1015.13 1015.24 1015.21 1015.06 1014.79 1014.44 1014.06 1013.69 1013.37 1013.12 1012.92 1012.76 1012.61 1012.44 1012.24 1012.01 1011.76 1011.52 1011.31 1011.14 1011.04 1011.00 1011.00 1011.03 1011.04 1011.03 1010.98 1010.89 1010.78 1010.66
1014.55 1014.81 1015.00 1015.07 1015.00 1014.83 1014.62 1014.42 1014.31 1014.31 1014.42 1014.62 1014.85 1015.06 1015.18 1015.19 1015.06 1014.82 1014.49 1014.13 1013.78 1013.47 1013.21 1013.01 1012.84 1012.67 1012.49 1012.27 1012.01 1011.74 1011.46 1011.21 1011.01 1010.86 1010.77 1010.73 1010.71 1010.70 1010.66 1010.60 1010.51 1010.40 1010.28
1014.13 1014.41 1014.64 1014.75 1014.74 1014.62 1014.45 1014.29 1014.19 1014.20 1014.31 1014.50 1014.73 1014.93 1015.06 1015.07 1014.96 1014.75 1014.45 1014.12 1013.80 1013.50 1013.26 1013.06 1012.88 1012.71 1012.51 1012.27 1012.00 1011.70 1011.39 1011.10 1010.85 1010.65 1010.51 1010.40 1010.33 1010.27 1010.20 1010.12 1010.03 1009.94 1009.84
1013.72 1014.03 1014.29 1014.46 1014.51 1014.45 1014.32 1014.20 1014.12 1014.12 1014.22 1014.38 1014.58 1014.76 1014.87 1014.88 1014.79 1014.59 1014.33 1014.04 1013.74 1013.48 1013.25 1013.06 1012.89 1012.70 1012.49 1012.24 1011.95 1011.63 1011.30 1010.97 1010.68 1010.43 1010.22 1010.06 1009.92 1009.81 1009.71 1009.61 1009.52 1009.45 1009.39
1013.35 1013.68 1013.99 1014.20 1014.30 1014.29 1014.21 1014.11 1014.05 1014.04 1014.12 1014.24 1014.40 1014.54 1014.63 1014.63 1014.54 1014.38 1014.15 1013.89 1013.64 1013.41 1013.20 1013.02 1012.85 1012.66 1012.44 1012.18 1011.88 1011.54 1011.18 1010.83 1010.50 1010.20 1009.94 1009.72 1009.53 1009.37 1009.24 1009.13 1009.05 1009.00 1008.99
1013.03 1013.38 1013.71 1013.95 1014.08 1014.11 1014.06 1013.99 1013.94 1013.93 1013.98 1014.08 1014.19 1014.30 1014.36 1014.36 1014.28 1014.13 1013.94 1013.72 1013.51 1013.31 1013.12 1012.95 1012.78 1012.58 1012.35 1012.08 1011.76 1011.41 1011.04 1010.68 1010.32 1009.99 1009.69 1009.43 1009.20 1009.00 1008.84 1008.72 1008.65 1008.63 1008.66
1012.76 1013.10 1013.41 1013.65 1013.79 1013.84 1013.82 1013.77 1013.74 1013.74 1013.78 1013.86 1013.96 1014.04 1014.09 1014.08 1014.01 1013.90 1013.74 1013.56 1013.38 1013.20 1013.04 1012.87 1012.69 1012.48 1012.24 1011.95 1011.62 1011.27 1010.90 1010.53 1010.17 1009.82 1009.51 1009.22 1008.96 1008.74 1008.56 1008.43 1008.36 1008.35 1008.41
1012.51 1012.81 1013.08 1013.28 1013.40 1013.45 1013.45 1013.43 1013.42 1013.45 1013.51 1013.60 1013.69 1013.78 1013.83 1013.83 1013.78 1013.69 1013.57 1013.43 1013.27 1013.12 1012.96 1012.79 1012.60 1012.37 1012.11 1011.81 1011.48 1011.13 1010.76 1010.40 1010.05 1009.72 1009.40 1009.10 1008.83 1008.59 1008.39 1008.25 1008.16 1008.16 1008.22
1012.27 1012.49 1012.68 1012.81 1012.89 1012.93 1012.94 1012.96 1012.99 1013.06 1013.16 1013.29 1013.41 1013.51 1013.59 1013.61 1013.59 1013.53 1013.44 1013.32 1013.19 1013.05 1012.90 1012.72 1012.51 1012.27 1011.99 1011.68 1011.34 1010.99 1010.65 1010.31 1009.98 1009.67 1009.36 1009.08 1008.80 1008.54 1008.32 1008.15 1008.04 1008.00 1008.05
1012.01 1012.12 1012.21 1012.26 1012.29 1012.31 1012.34 1012.39 1012.48 1012.62 1012.78 1012.95 1013.12 1013.26 1013.36 1013.41 1013.42 1013.39 1013.32 1013.23 1013.12 1012.99 1012.84 1012.65 1012.43 1012.16 1011.87 1011.55 1011.21 1010.88 1010.55 1010.24 1009.95 1009.66 1009.39 1009.11 1008.84 1008.57 1008.32 1008.11 1007.95 1007.86 1007.85
1011.71 1011.72 1011.70 1011.67 1011.65 1011.65 1011.70 1011.80 1011.96 1012.16 1012.39 1012.62 1012.83 1013.01 1013.14 1013.22 1013.25 1013.24 1013.19 1013.12 1013.03 1012.91 1012.75 1012.56 1012.32 1012.05 1011.74 1011.42 1011.09 1010.77 1010.47 1010.19 1009.94 1009.69 1009.44 1009.18 1008.91 1008.63 1008.35 1008.09 1007.88 1007.72 1007.64
1011.38 1011.29 1011.19 1011.10 1011.04 1011.04 1011.11 1011.25 1011.47 1011.74 1012.02 1012.31 1012.56 1012.76 1012.91 1013.00 1013.04 1013.04 1013.00 1012.95 1012.86 1012.75 1012.60 1012.41 1012.17 1011.89 1011.59 1011.27 1010.95 1010.65 1010.38 1010.14 1009.92 1009.71 1009.50 1009.26 1009.00 1008.71 1008.40 1008.09 1007.81 1007.58 1007.42
1011.04 1010.89 1010.74 1010.61 1010.53 1010.54 1010.64 1010.84 1011.10 1011.41 1011.73 1012.04 1012.30 1012.50 1012.64 1012.72 1012.75 1012.75 1012.72 1012.67 1012.59 1012.49 1012.35 1012.16 1011.93 1011.66 1011.37 1011.06 1010.76 1010.49 1010.25 1010.05 1009.87 1009.70 1009.52 1009.31 1009.06 1008.77 1008.44 1008.09 1007.76 1007.46 1007.23
1010.72 1010.56 1010.39 1010.26 1010.20 1010.24 1010.37 1010.59 1010.88 1011.20 1011.52 1011.81 1012.05 1012.22 1012.33 1012.38 1012.38 1012.36 1012.32 1012.27 1012.20 1012.10 1011.97 1011.80 1011.59 1011.33 1011.05 1010.77 1010.50 1010.25 1010.05 1009.88 1009.75 1009.62 1009.48 1009.31 1009.08 1008.80 1008.46 1008.09 1007.73 1007.38 1007.10
1010.45 1010.32 1010.19 1010.10 1010.07 1010.14 1010.30 1010.53 1010.82 1011.12 1011.40 1011.64 1011.82 1011.93 1011.98 1011.97 1011.93 1011.88 1011.82 1011.76 1011.69 1011.60 1011.49 1011.33 1011.13 1010.90 1010.64 1010.38 1010.13 1009.92 1009.75 1009.63 1009.54 1009.46 1009.36 1009.22 1009.03 1008.77 1008.45 1008.08 1007.70 1007.34 1007.02
1010.26 1010.20 1010.14 1010.11 1010.14 1010.24 1010.41 1010.64 1010.89 1011.14 1011.36 1011.52 1011.61 1011.64 1011.60 1011.54 1011.45 1011.36 1011.28 1011.20 1011.13 1011.04 1010.93 1010.78 1010.60 1010.37 1010.13 1009.89 1009.68 1009.49 1009.36 1009.28 1009.23 1009.19 1009.14 1009.05 1008.89 1008.67 1008.37 1008.03 1007.66 1007.29 1006.97
1010.18 1010.22 1010.24 1010.29 1010.37 1010.50 1010.67 1010.87 1011.07 1011.24 1011.36 1011.43 1011.43 1011.36 1011.26 1011.13 1010.99 1010.87 1010.76 1010.67 1010.58 1010.49 1010.37 1010.22 1010.04 1009.82 1009.59 1009.36 1009.16 1009.00 1008.90 1008.85 1008.84 1008.84 1008.83 1008.78 1008.67 1008.48 1008.22 1007.90 1007.55 1007.20 1006.89
1010.21 1010.34 1010.46 1010.58 1010.70 1010.85 1011.01 1011.16 1011.30 1011.39 1011.42 1011.39 1011.30 1011.16 1010.99 1010.80 1010.63 1010.48 1010.35 1010.24 1010.14 1010.03 1009.90 1009.73 1009.53 1009.30 1009.06 1008.83 1008.64 1008.49 1008.41 1008.39 1008.41 1008.44 1008.47 1008.45 1008.37 1008.21 1007.98 1007.68 1007.36 1007.02 1006.72
1010.32 1010.55 1010.75 1010.93 1011.09 1011.24 1011.38 1011.49 1011.55 1011.56 1011.51 1011.40 1011.24 1011.05 1010.84 1010.63 1010.44 1010.28 1010.14 1010.01 1009.89 1009.75 1009.59 1009.39 1009.15 1008.89 1008.63 1008.39 1008.19 1008.05 1007.98 1007.97 1008.01 1008.07 1008.11 1008.11 1008.04 1007.90 1007.68 1007.39 1007.07 1006.74 1006.44
1010.51 1010.81 1011.07 1011.29 1011.48 1011.62 1011.73 1011.80 1011.80 1011.75 1011.64 1011.48 1011.29 1011.08 1010.86 1010.66 1010.47 1010.31 1010.17 1010.03 1009.89 1009.72 1009.51 1009.26 1008.98 1008.69 1008.40 1008.13 1007.92 1007.78 1007.70 1007.70 1007.74 1007.80 1007.84 1007.84 1007.76 1007.61 1007.38 1007.08 1006.74 1006.39 1006.08
1010.71 1011.07 1011.38 1011.63 1011.82 1011.97 1012.05 1012.08 1012.05 1011.96 1011.82 1011.65 1011.46 1011.26 1011.07 1010.89 1010.73 1010.59 1010.46 1010.32 1010.15 1009.94 1009.69 1009.40 1009.08 1008.74 1008.41 1008.13 1007.90 1007.74 1007.66 1007.65 1007.68 1007.72 1007.75 1007.72 1007.62 1007.43 1007.16 1006.82 1006.45 1006.06 1005.71
Thickness
5711 5710 5707 5704 5700 5696 5692 5688 5684 5680 5677 5674 5671 5670 5669 5671 5672 5674 5676 5678 5679 5681 5683 5685 5687 5690 5692 5694 5697 5700 5702 5705 5708 5709 5711 5717 5723 5727 5730 5734 5737 5738 5740
5708 5706 5704 5702 5698 5694 5691 5687 5683 5680 5677 5673 5671 5669 5668 5668 5669 5671 5673 5674 5675 5677 5679 5679 5681 5683 5685 5688 5691 5693 5695 5698 5702 5701 5701 5703 5710 5719 5726 5729 5732 5735 5737
5707 5705 5703 5700 5698 5694 5691 5688 5684 5681 5677 5675 5672 5669 5667 5666 5666 5667 5668 5670 5671 5672 5674 5675 5676 5678 5679 5681 5684 5687 5689 5690 5694 5697 5696 5695 5698 5707 5716 5722 5726 5729 5732
5711 5707 5705 5701 5698 5696 5693 5689 5685 5681 5679 5675 5671 5667 5664 5662 5662 5663 5664 5666 5668 5668 5669 5671 5671 5672 5674 5675 5678 5682 5684 5685 5686 5690 5694 5696 5698 5697 5702 5711 5718 5723 5726
5713 5710 5707 5704 5702 5699 5694 5690 5686 5682 5679 5676 5672 5668 5664 5663 5662 5662 5662 5663 5664 5665 5665 5666 5667 5668 5669 5671 5673 5675 5678 5680 5681 5683 5686 5689 5692 5695 5695 5698 5706 5712 5719
5715 5712 5710 5706 5703 5700 5696 5691 5686 5683 5679 5676 5672 5668 5665 5663 5661 5660 5659 5658 5659 5660 5661 5662 5663 5664 5665 5666 5668 5671 5673 5675 5677 5679 5681 5683 5685 5687 5690 5692 5696 5701 5710
5714 5711 5708 5705 5703 5700 5696 5692 5687 5683 5679 5676 5673 5669 5666 5663 5660 5658 5656 5655 5655 5655 5657 5658 5659 5660 5662 5663 5664 5666 5668 5671 5672 5674 5677 5679 5681 5684 5686 5687 5690 5694 5701
5716 5714 5711 5708 5704 5702 5698 5693 5688 5684 5680 5677 5673 5670 5667 5664 5661 5658 5656 5654 5653 5653 5655 5656 5657 5658 5659 5660 5661 5661 5663 5665 5667 5670 5672 5674 5677 5680 5682 5683 5684 5685 5690
5718 5716 5713 5710 5707 5703 5699 5695 5690 5685 5682 5678 5675 5671 5668 5665 5662 5659 5656 5654 5653 5654 5654 5654 5655 5655 5656 5656 5657 5657 5658 5660 5662 5665 5667 5669 5672 5674 5677 5679 5681 5680 5681
5720 5718 5715 5712 5709 5706 5702 5697 5692 5687 5683 5680 5676 5673 5669 5666 5663 5660 5657 5655 5654 5653 5653 5652 5653 5653 5653 5653 5653 5654 5655 5655 5657 5659 5661 5663 5665 5668 5671 5673 5675 5678 5679
5722 5719 5716 5714 5711 5707 5703 5698 5693 5689 5685 5681 5678 5674 5670 5667 5664 5661 5658 5656 5654 5653 5652 5651 5651 5650 5650 5650 5650 5650 5651 5651 5652 5653 5655 5657 5659 5661 5664 5666 5669 5671 5674
5725 5722 5719 5715 5711 5708 5704 5699 5695 5691 5687 5683 5679 5675 5672 5668 5665 5662 5659 5657 5655 5653 5651 5650 5649 5648 5648 5648 5648 5647 5647 5647 5647 5648 5649 5651 5654 5655 5658 5660 5663 5665 5669
5726 5722 5719 5715 5712 5709 5705 5701 5697 5693 5689 5685 5680 5676 5672 5669 5665 5663 5661 5658 5656 5653 5651 5649 5648 5647 5646 5646 5646 5645 5645 5644 5644 5645 5645 5646 5648 5649 5652 5654 5657 5660 5664
5727 5723 5719 5716 5714 5711 5707 5703 5699 5695 5691 5686 5681 5677 5673 5670 5667 5664 5662 5659 5657 5654 5652 5650 5648 5647 5646 5645 5644 5643 5642 5642 5642 5642 5642 5643 5644 5645 5647 5650 5652 5655 5657
5729 5726 5721 5718 5716 5712 5709 5705 5701 5697 5693 5687 5683 5679 5676 5673 5669 5666 5663 5661 5658 5656 5654 5651 5649 5648 5647 5646 5644 5643 5642 5640 5639 5639 5639 5640 5642 5644 5645 5647 5648 5650 5652
5732 5730 5726 5722 5718 5715 5711 5707 5703 5699 5694 5689 5685 5682 5678 5674 5671 5668 5665 5662 5660 5657 5655 5652 5650 5648 5648 5647 5646 5644 5641 5639 5638 5637 5637 5638 5639 5641 5643 5645 5646 5647 5648
5736 5733 5729 5725 5722 5718 5714 5709 5706 5701 5695 5691 5687 5683 5679 5675 5672 5669 5666 5663 5660 5658 5656 5654 5651 5649 5648 5648 5647 5645 5642 5639 5638 5637 5636 5637 5638 5638 5639 5641 5643 5645 5647
5738 5735 5731 5728 5725 5721 5717 5713 5707 5701 5696 5691 5688 5684 5680 5677 5673 5670 5667 5664 5662 5659 5657 5655 5653 5651 5650 5650 5649 5647 5643 5640 5639 5637 5636 5635 5635 5637 5637 5638 5639 5641 5643
5740 5737 5734 5730 5726 5722 5717 5712 5706 5701 5696 5692 5688 5685 5682 5678 5674 5671 5668 5666 5663 5661 5659 5657 5655 5652 5651 5651 5650 5648 5643 5640 5639 5637 5636 5635 5635 5636 5637 5636 5636 5638 5640
5740 5737 5733 5729 5724 5721 5716 5710 5704 5699 5695 5693 5690 5687 5683 5679 5675 5672 5670 5667 5664 5662 5661 5659 5657 5654 5653 5653 5651 5649 5644 5640 5639 5637 5636 5635 5635 5636 5636 5634 5634 5635 5637
5739 5735 5731 5726 5722 5719 5714 5708 5703 5699 5698 5695 5691 5687 5684 5680 5677 5674 5671 5668 5665 5662 5660 5659 5658 5656 5655 5653 5652 5650 5644 5641 5639 5637 5636 5635 5635 5635 5635 5634 5634 5635 5636
5735 5732 5726 5722 5720 5716 5712 5705 5701 5700 5697 5693 5689 5686 5683 5680 5679 5673 5671 5668 5664 5661 5659 5657 5657 5656 5655 5654 5652 5650 5647 5644 5640 5638 5637 5636 5636 5636 5635 5635 5635 5635 5635
5730 5727 5722 5717 5714 5712 5708 5702 5700 5698 5695 5690 5686 5684 5681 5678 5676 5672 5669 5666 5663 5660 5658 5656 5655 5655 5655 5653 5652 5650 5648 5645 5641 5639 5638 5638 5637 5636 5635 5635 5635 5634 5633
5725 5722 5717 5712 5708 5706 5703 5700 5698 5695 5691 5686 5683 5680 5677 5675 5673 5670 5668 5664 5661 5659 5657 5655 5654 5653 5652 5651 5650 5648 5646 5644 5641 5638 5637 5637 5636 5635 5634 5634 5633 5632 5631
5720 5716 5711 5706 5702 5700 5697 5695 5693 5691 5685 5681 5678 5675 5673 5670 5668 5667 5665 5663 5662 5659 5657 5656 5654 5651 5650 5652 5650 5646 5643 5640 5637 5635 5633 5632 5631 5631 5631 5632 5632 5631 5630
5713 5708 5704 5699 5695 5692 5690 5688 5687 5684 5680 5675 5672 5669 5667 5665 5663 5661 5660 5661 5659 5658 5656 5654 5653 5652 5651 5651 5649 5645 5642 5638 5635 5630 5627 5626 5626 5626 5626 5627 5627 5628 5628